Weather History for Owatonna, MN

Change the Weather History Date:

Monday, November 19, 2012

  Actual Average Record
Temperature  
Mean Temperature 48 °F -  
Max Temperature 60 °F 42 °F 61 °F (1989)
Min Temperature 37 °F 24 °F 2 °F (1986)
Degree Days  
Heating Degree Days 16    
Moisture  
Dew Point 33 °F    
Average Humidity 50    
Maximum Humidity 81    
Minimum Humidity 31    
Precipitation  
Precipitation 0.00 in - - ()
Sea Level Pressure  
Sea Level Pressure 30.04 in    
Wind  
Wind Speed 12 mph (SSE)    
Max Wind Speed 18 mph    
Max Gust Speed 24 mph    
Visibility 10 miles    
Events      
Averages and records for this station are not official NWS values.
T = Trace of Precipitation, MM = Missing Value Source: NWS Daily Summary

Daily Weather History Graph

Daily Weather History Graph

Search for Another Location

Airport:

Trip Planner

Search our weather history database for the weather conditions in past years. The results will help you decide how hot, cold, wet, or windy it might be!

Date:

Astronomy

Nov. 19, 2012 Rise Set
Actual Time 7:14 AM CST 4:42 PM CST
Civil Twilight 6:42 AM CST 5:14 PM CST
Nautical Twilight 6:07 AM CST 5:49 PM CST
Astronomical Twilight 5:32 AM CST 6:23 PM CST
Moon 12:12 PM CST (11/19) 11:16 PM CST (11/19)
Length of Visible Light 10h 31m
Length of Day
9h 28m
Waxing Crescent, 41% of the Moon is Illuminated
Nov 19
Waxing Crescent
Nov 20
First Quarter
Nov 28
Full
Dec 6
Last Quarter
Dec 13
New

Hourly Weather History & Observations

Time (CST) Temp. Windchill Dew Point Humidity Pressure Visibility Wind Dir Wind Speed Gust Speed Precip Events Conditions
12:14 AM 53.6 °F - 28.4 °F 38% 30.10 in 10.0 mi SSE 15.0 mph - N/A   Overcast
12:33 AM 53.6 °F - 28.4 °F 38% 30.09 in 10.0 mi SSE 15.0 mph 21.9 mph N/A   Overcast
12:54 AM 53.6 °F - 28.4 °F 38% 30.08 in 10.0 mi SSE 17.3 mph 23.0 mph N/A   Overcast
1:14 AM 53.6 °F - 28.4 °F 38% 30.08 in 10.0 mi SSE 15.0 mph 20.7 mph N/A   Overcast
1:33 AM 51.8 °F - 28.4 °F 41% 30.07 in 10.0 mi SSE 13.8 mph 20.7 mph N/A   Mostly Cloudy
1:53 AM 53.6 °F - 28.4 °F 38% 30.07 in 10.0 mi SSE 13.8 mph 20.7 mph N/A   Mostly Cloudy
2:14 AM 51.8 °F - 28.4 °F 41% 30.08 in 10.0 mi SSE 12.7 mph - N/A   Scattered Clouds
2:34 AM 51.8 °F - 28.4 °F 41% 30.07 in 10.0 mi SSE 12.7 mph - N/A   Scattered Clouds
2:53 AM 53.6 °F - 28.4 °F 38% 30.07 in 10.0 mi SSE 13.8 mph 19.6 mph N/A   Mostly Cloudy
3:14 AM 53.6 °F - 28.4 °F 38% 30.07 in 10.0 mi SSE 15.0 mph - N/A   Mostly Cloudy
3:34 AM 53.6 °F - 28.4 °F 38% 30.06 in 10.0 mi SSE 15.0 mph 21.9 mph N/A   Overcast
3:53 AM 53.6 °F - 28.4 °F 38% 30.06 in 10.0 mi SSE 18.4 mph 24.2 mph N/A   Mostly Cloudy
4:13 AM 51.8 °F - 30.2 °F 44% 30.06 in 10.0 mi SSE 16.1 mph 21.9 mph N/A   Scattered Clouds
4:34 AM 50.0 °F - 30.2 °F 47% 30.06 in 10.0 mi SSE 15.0 mph - N/A   Clear
4:54 AM 50.0 °F - 32.0 °F 50% 30.06 in 10.0 mi SSE 15.0 mph - N/A   Clear
5:14 AM 50.0 °F - 33.8 °F 54% 30.05 in 10.0 mi SSE 16.1 mph - N/A   Clear
5:34 AM 48.2 °F - 33.8 °F 58% 30.05 in 10.0 mi SSE 16.1 mph - N/A   Clear
5:54 AM 50.0 °F - 35.6 °F 58% 30.05 in 10.0 mi SSE 17.3 mph - N/A   Clear
6:14 AM 50.0 °F - 35.6 °F 58% 30.05 in 10.0 mi SSE 15.0 mph - N/A   Scattered Clouds
6:33 AM 50.0 °F - 35.6 °F 58% 30.05 in 10.0 mi SSE 15.0 mph 20.7 mph N/A   Scattered Clouds
6:54 AM 51.8 °F - 35.6 °F 54% 30.05 in 10.0 mi SSE 16.1 mph 23.0 mph N/A   Mostly Cloudy
7:34 AM 51.8 °F - 35.6 °F 54% 30.04 in 10.0 mi SSE 15.0 mph 18.4 mph N/A   Mostly Cloudy
7:53 AM 51.8 °F - 35.6 °F 54% 30.04 in 10.0 mi SSE 12.7 mph - N/A   Mostly Cloudy
8:13 AM 51.8 °F - 35.6 °F 54% 30.04 in 10.0 mi SSE 15.0 mph 23.0 mph N/A   Mostly Cloudy
8:33 AM 51.8 °F - 35.6 °F 54% 30.04 in 10.0 mi SSE 15.0 mph 21.9 mph N/A   Clear
8:54 AM 51.8 °F - 35.6 °F 54% 30.04 in 10.0 mi SSE 13.8 mph - N/A   Clear
9:13 AM 53.6 °F - 35.6 °F 51% 30.04 in 10.0 mi SSE 13.8 mph 17.3 mph N/A   Clear
9:34 AM 53.6 °F - 33.8 °F 47% 30.04 in 10.0 mi South 11.5 mph 16.1 mph N/A   Clear
9:54 AM 55.4 °F - 33.8 °F 44% 30.05 in 10.0 mi South 11.5 mph - N/A   Clear
10:13 AM 55.4 °F - 33.8 °F 44% 30.04 in 10.0 mi South 15.0 mph - N/A   Clear
10:33 AM 57.2 °F - 33.8 °F 41% 30.04 in 10.0 mi SSE 15.0 mph - N/A   Clear
10:53 AM 57.2 °F - 33.8 °F 41% 30.04 in 10.0 mi South 11.5 mph 17.3 mph N/A   Clear
11:14 AM 57.2 °F - 32.0 °F 38% 30.03 in 10.0 mi South 10.4 mph - N/A   Clear
11:34 AM 59.0 °F - 32.0 °F 36% 30.03 in 10.0 mi South 10.4 mph - N/A   Clear
11:54 AM 59.0 °F - 32.0 °F 36% 30.03 in 10.0 mi South 10.4 mph - N/A   Scattered Clouds
12:13 PM 59.0 °F - 32.0 °F 36% 30.02 in 10.0 mi South 10.4 mph - N/A   Clear
12:33 PM 60.8 °F - 32.0 °F 34% 30.01 in 10.0 mi South 9.2 mph - N/A   Clear
1:13 PM 60.8 °F - 30.2 °F 31% 30.01 in 10.0 mi South 9.2 mph - N/A   Clear
1:33 PM 60.8 °F - 32.0 °F 34% 30.00 in 10.0 mi South 9.2 mph - N/A   Clear
1:54 PM 60.8 °F - 32.0 °F 34% 30.00 in 10.0 mi SSW 9.2 mph - N/A   Clear
2:13 PM 60.8 °F - 32.0 °F 34% 30.00 in 10.0 mi South 6.9 mph - N/A   Clear
2:33 PM 60.8 °F - 32.0 °F 34% 30.00 in 10.0 mi South 9.2 mph - N/A   Clear
2:54 PM 60.8 °F - 32.0 °F 34% 30.00 in 10.0 mi SSE 6.9 mph - N/A   Clear
3:13 PM 60.8 °F - 33.8 °F 36% 30.00 in 10.0 mi SSE 4.6 mph - N/A   Clear
3:53 PM 60.8 °F - 33.8 °F 36% 30.01 in 10.0 mi South 4.6 mph - N/A   Clear
4:13 PM 60.8 °F - 33.8 °F 36% 30.01 in 10.0 mi South 3.5 mph - N/A   Clear
4:34 PM 57.2 °F - 33.8 °F 41% 30.01 in 10.0 mi Calm Calm - N/A   Clear
4:54 PM 57.2 °F - 33.8 °F 41% 30.01 in 10.0 mi SSE 4.6 mph - N/A   Clear
5:14 PM 55.4 °F - 33.8 °F 44% 30.01 in 10.0 mi Calm Calm - N/A   Clear
5:34 PM 51.8 °F - 33.8 °F 50% 30.02 in 10.0 mi Calm Calm - N/A   Clear
5:53 PM 53.6 °F - 33.8 °F 47% 30.02 in 10.0 mi SE 4.6 mph - N/A   Clear
6:13 PM 50.0 °F - 33.8 °F 54% 30.03 in 10.0 mi SE 3.5 mph - N/A   Clear
6:33 PM 48.2 °F - 33.8 °F 58% 30.03 in 10.0 mi SE 5.8 mph - N/A   Clear
6:54 PM 46.4 °F 44.3 °F 33.8 °F 62% 30.04 in 10.0 mi SE 4.6 mph - N/A   Clear
7:13 PM 46.4 °F 45.2 °F 33.8 °F 62% 30.04 in 10.0 mi SE 3.5 mph - N/A   Clear
7:33 PM 44.6 °F - 33.8 °F 66% 30.04 in 10.0 mi Calm Calm - N/A   Clear
7:53 PM 44.6 °F 42.2 °F 33.8 °F 66% 30.04 in 10.0 mi SSE 4.6 mph - N/A   Clear
8:14 PM 44.6 °F - 35.6 °F 71% 30.04 in 10.0 mi Calm Calm - N/A   Clear
8:34 PM 46.4 °F - 35.6 °F 66% 30.04 in 10.0 mi Calm Calm - N/A   Clear
8:53 PM 42.8 °F - 33.8 °F 70% 30.04 in 10.0 mi Calm Calm - N/A   Clear
9:13 PM 39.2 °F - 33.8 °F 81% 30.04 in 10.0 mi Calm Calm - N/A   Clear
9:33 PM 42.8 °F - 33.8 °F 70% 30.04 in 10.0 mi Calm Calm - N/A   Clear
9:53 PM 42.8 °F 41.1 °F 33.8 °F 70% 30.03 in 10.0 mi ESE 3.5 mph - N/A   Clear
10:13 PM 42.8 °F - 33.8 °F 70% 30.03 in 10.0 mi Calm Calm - N/A   Clear
10:33 PM 39.2 °F 37.0 °F 32.0 °F 75% 30.04 in 7.0 mi WSW 3.5 mph - N/A   Clear
10:54 PM 39.2 °F - 32.0 °F 75% 30.05 in 7.0 mi Calm Calm - N/A   Clear
11:13 PM 37.4 °F - 30.2 °F 75% 30.05 in 7.0 mi Calm Calm - N/A   Clear
11:34 PM 37.4 °F - 30.2 °F 75% 30.06 in 5.0 mi Calm Calm - N/A   Haze
11:53 PM 37.4 °F - 30.2 °F 75% 30.06 in 5.0 mi Calm Calm - N/A   Haze